Voltar ao catálogo

CZ-6A DEB

AtivoSSO
NORAD 54327·DEBRIS·🇨🇳 China

Lançado Nov 11, 2022 de Taiyuan Satellite Launch Center

Loading…

Próximas Passagens (próximas 24 horas)

TLE

AtualizadoSource: Space-Track

Época: Sep 14, 2026, 16:59 UTC

1 54327U 22151BW  26257.70798721  .00000521  00000-0  30698-3 0  9992
2 54327  98.8346 253.6219 0049275  82.8845 277.7926 14.11659902197084

Acompanhe CZ-6A DEB em tempo real com AllMySat

Download on the App Store